EW9525 Weather Reports


time (UTC)temp
F
wind
direction
speed
knots
gust
knots
rain 1hr
in
rain 24hr
in
rain mn
in
humidity
%
barometer
mb
20260509104534 48 242 1.7 4.3 0.00 0.00 0.00 70 1008.2
20260509103033 46 158 0.9 2.6 0.00 0.00 0.00 74 1008.0
20260509101539 45 191 0.9 1.7 0.00 0.00 0.00 75 1008.2
20260509100026 45 161 0.9 2.6 0.00 0.00 0.00 71 1008.1
20260509094528 49 198 0.9 3.5 0.00 0.00 0.00 63 1008.1
20260509093025 49 216 0.9 2.6 0.00 0.00 0.00 61 1008.2
20260509091529 49 227 2.6 5.2 0.00 0.00 0.00 62 1008.3
20260509090023 49 209 1.7 3.5 0.00 0.00 0.00 63 1008.2
20260509084528 47 259 0.9 2.6 0.00 0.00 0.00 65 1008.4
20260509083024 49 219 0.9 3.5 0.00 0.00 0.00 63 1008.1
20260509081520 48 211 0.9 1.7 0.00 0.00 0.00 63 1008.1
20260509080017 47 221 0.9 2.6 0.00 0.00 0.00 65 1008.3
20260509074518 45 200 0.9 2.6 0.00 0.00 0.00 66 1008.3
20260509073025 45 202 0.0 0.0 0.00 0.00 0.00 67 1008.5
20260509071512 47 222 0.0 2.6 0.00 0.00 0.00 65 1008.6
20260509070010 46 117 0.0 1.7 0.00 0.00 0.00 65 1008.8
20260509064508 48 186 3.5 5.2 0.00 0.00 0.00 61 1008.7
20260509063013 47 199 2.6 4.3 0.00 0.00 0.00 62 1008.6
20260509061504 49 198 2.6 4.3 0.00 0.00 0.00 58 1008.8
20260509060002 51 215 3.5 5.2 0.00 0.00 0.00 54 1008.7
20260509054614 50 192 2.6 4.3 0.00 0.00 0.00 56 1008.7
20260509053104 50 200 3.5 5.2 0.00 0.00 0.00 56 1008.8
20260509051557 51 191 2.6 5.2 0.00 0.00 0.00 56 1009.0
20260509050057 50 193 2.6 4.3 0.00 0.00 0.00 56 1009.0
20260509044554 52 200 3.5 5.2 0.00 0.00 0.00 51 1009.1
20260509043054 51 198 2.6 4.3 0.00 0.00 0.00 51 1009.1
20260509041555 52 177 3.5 4.3 0.00 0.00 0.00 48 1009.1
20260509040121 52 195 2.6 4.3 0.00 0.00 0.00 48 1009.1
20260509034557 53 195 3.5 4.3 0.00 0.00 0.00 46 1008.9
20260509033053 55 191 2.6 3.5 0.00 0.00 0.00 43 1008.9
20260509031553 57 177 2.6 3.5 0.00 0.00 0.00 39 1008.7
20260509030051 68 198 0.0 0.0 0.00 0.00 0.00 27 1008.7
20260509024550 67 243 0.0 1.7 0.00 0.00 0.00 26 1008.5
20260509023049 67 241 0.0 0.9 0.00 0.00 0.00 27 1008.4
20260509021549 67 252 0.0 1.7 0.00 0.00 0.00 27 1008.3
20260509020048 68 245 0.0 2.6 0.00 0.00 0.00 27 1008.1
20260509014547 68 264 2.6 4.3 0.00 0.00 0.00 27 1007.9
20260509013051 68 266 3.5 4.3 0.00 0.00 0.00 28 1007.8
20260509011556 67 280 1.7 3.5 0.00 0.00 0.00 30 1007.6
20260509010049 70 291 0.9 5.2 0.00 0.00 0.00 32 1007.7
20260509004604 71 293 5.2 11.3 0.00 0.00 0.00 26 1007.6
20260509003046 72 286 4.3 10.4 0.00 0.00 0.00 27 1007.6
20260509001544 73 283 6.1 10.4 0.00 0.00 0.00 26 1007.4
20260509000046 73 301 8.7 13.0 0.00 0.00 0.00 25 1007.5
20260508234543 73 238 3.5 8.7 0.00 0.00 0.00 26 1007.5
20260508233044 73 259 8.7 17.4 0.00 0.00 0.00 25 1007.4
20260508231542 75 274 7.0 12.2 0.00 0.00 0.00 26 1007.5
20260508230042 73 283 7.8 13.9 0.00 0.00 0.00 26 1007.7
20260508224541 74 284 6.1 13.0 0.00 0.00 0.00 28 1007.6
20260508223046 75 281 11.3 16.5 0.00 0.00 0.00 26 1007.5
20260508221541 73 268 7.0 10.4 0.00 0.00 0.00 27 1007.7
20260508220039 73 267 6.1 13.0 0.00 0.00 0.00 28 1007.8
20260508214546 75 248 7.0 13.0 0.00 0.00 0.00 26 1007.9
20260508213037 74 274 10.4 14.8 0.00 0.00 0.00 24 1007.9
20260508211535 74 273 5.2 11.3 0.00 0.00 0.00 28 1008.1
20260508210034 72 277 6.1 12.2 0.00 0.00 0.00 29 1008.4
20260508204536 72 294 7.8 11.3 0.00 0.00 0.00 29 1008.4
20260508203031 73 297 4.3 12.2 0.00 0.00 0.00 28 1008.6
20260508201530 74 304 7.0 13.0 0.00 0.00 0.00 27 1008.7
20260508200031 74 281 6.1 10.4 0.00 0.00 0.00 32 1008.9
20260508194527 73 298 5.2 12.2 0.00 0.00 0.00 27 1009.0
20260508193025 73 261 7.8 14.8 0.00 0.00 0.00 32 1009.0
20260508191528 73 278 9.6 15.6 0.00 0.00 0.00 28 1009.1
20260508190026 71 285 7.8 13.0 0.00 0.00 0.00 30 1009.3
20260508184521 70 279 5.2 9.6 0.00 0.00 0.00 34 1009.4
20260508183020 71 271 5.2 14.8 0.00 0.00 0.00 35 1009.5
20260508181518 70 274 10.4 14.8 0.00 0.00 0.00 31 1009.7
20260508180020 70 290 3.5 14.8 0.00 0.00 0.00 33 1009.8
20260508174516 70 304 8.7 16.5 0.00 0.00 0.00 36 1009.9
20260508173013 69 263 3.5 11.3 0.00 0.00 0.00 34 1010.1
20260508171514 68 274 6.1 13.9 0.00 0.00 0.00 33 1010.3
20260508170010 68 278 7.0 13.0 0.00 0.00 0.00 34 1010.4
20260508164508 67 310 5.2 12.2 0.00 0.00 0.00 32 1010.5
20260508163005 67 304 5.2 11.3 0.00 0.00 0.00 34 1010.6
20260508161503 66 291 6.1 10.4 0.00 0.00 0.00 35 1010.5
20260508160003 65 283 6.1 13.0 0.00 0.00 0.00 31 1010.6
20260508154600 65 278 6.1 10.4 0.00 0.00 0.00 34 1010.6
20260508153057 64 259 8.7 13.0 0.00 0.00 0.00 35 1010.7
20260508151555 62 266 7.0 11.3 0.00 0.00 0.00 42 1010.8
20260508150048 59 281 6.1 9.6 0.00 0.00 0.00 45 1010.8
20260508144547 57 278 5.2 8.7 0.00 0.00 0.00 49 1010.7
20260508143057 56 278 5.2 10.4 0.00 0.00 0.00 53 1010.6
20260508141552 54 281 5.2 8.7 0.00 0.00 0.00 56 1010.5
20260508140044 53 289 4.3 7.8 0.00 0.00 0.00 59 1010.5
20260508134542 52 278 4.3 8.7 0.00 0.00 0.00 62 1010.5
20260508133053 52 270 5.2 8.7 0.00 0.00 0.00 61 1010.5
20260508131540 51 269 4.3 7.0 0.00 0.00 0.00 65 1010.4
20260508130036 51 274 4.3 8.7 0.00 0.00 0.00 65 1010.1
20260508124533 51 284 4.3 7.8 0.00 0.00 0.00 65 1009.9
20260508123032 51 283 5.2 9.6 0.00 0.00 0.00 64 1009.7
20260508121551 51 264 5.2 9.6 0.00 0.00 0.00 64 1009.2
20260508120029 51 266 5.2 7.8 0.00 0.00 0.00 65 1008.9
20260508114525 51 276 3.5 8.7 0.00 0.00 0.00 65 1008.8
20260508113024 52 266 5.2 9.6 0.00 0.00 0.00 64 1008.8
20260508111523 53 278 6.1 11.3 0.00 0.00 0.00 63 1008.6
20260508110022 54 269 7.0 13.0 0.00 0.00 0.00 63 1008.6